Regional Weather Roundup
Issued by NWS Green Bay, WI

Home | Current Version | Previous Version | Text Only | Print | Product List | Glossary On
Versions: 1 2 3 4 5 6 7 8 9 10 11 12 13 14 15 16 17 18 19 20 21 22 23 24 25 26 27 28 29 30 31 32 33 34 35 36 37 38 39 40 41 42 43 44 45 46 47 48 49 50
000
ASUS43 KGRB 280410
RWRGRB

NORTH-CENTRAL AND NORTHEAST WISCONSIN REGIONAL WEATHER ROUNDUP
NATIONAL WEATHER SERVICE GREEN BAY WI
1000 PM CST TUE JAN 27 2015

WIZ005-009-010>012-018-019-280500-
NORTH CENTRAL WISCONSIN

CITY           SKY/WX    TMP DP  RH WIND       PRES   REMARKS
IRONWOOD       CLOUDY    25  21  86 CALM      30.12S
MANITOWISH WTR CLOUDY    22  20  89 SW6       30.14R
ARBOR VITAE    CLOUDY    24  20  87 S6        30.13S
EAGLE RIVER    CLOUDY    22  17  83 SW3       30.14R
LAND O LAKES   CLOUDY    23  19  87 S3        30.14R
RHINELANDER    CLOUDY    22  17  81 SW5       30.15R
PHILLIPS       CLOUDY    23  19  87 S7        30.13F
ANTIGO         CLOUDY    21  18  89 S6        30.17R
TOMAHAWK       CLOUDY    22  18  85 CALM      30.16S
MERRILL        CLOUDY    24  20  85 S5        30.18R
$$

WIZ013-073-280500-
NORTHEAST WISCONSIN

CITY           SKY/WX    TMP DP  RH WIND       PRES   REMARKS
IRON MOUNTAIN  CLOUDY    22  16  78 S6        30.16S
MARINETTE      MOCLDY    18  16  93 CALM      30.23S
OCONTO         MOCLDY    12  10  94 CALM      30.24S
$$

WIZ017-030-035>037-045-280500-
CENTRAL WISCONSIN

CITY           SKY/WX    TMP DP  RH WIND       PRES   REMARKS
MEDFORD        CLOUDY    21  19  93 S7        30.16F
WAUSAU         CLOUDY    23  19  85 S8        30.18R
MOSINEE        CLOUDY    23  23 100 S6        30.20R
MARSHFIELD     CLOUDY    25  22  88 S5        30.19S FOG
WISC RAPIDS    CLOUDY    24  20  84 SE3       30.22S
STEVENS POINT  CLOUDY    22  19  87 S3        30.21S
WAUPACA        CLOUDY    26  19  75 CALM      30.22F
SHAWANO        CLOUDY    26  17  71 S3        30.23S
CLINTONVILLE   CLOUDY    25  18  74 S3        30.22F
$$

WIZ038-039-048-051-280500-
FOX VALLEY

CITY           SKY/WX    TMP DP  RH WIND       PRES   REMARKS
NWS GREEN BAY  CLOUDY    16  13  88 CALM      30.25R
APPLETON       CLOUDY    25  16  68 VRB5      30.23R
OSHKOSH        CLOUDY    23  16  74 CALM      30.24R
FOND DU LAC    CLOUDY    24  16  71 S3        30.24R
$$

WIZ022-050-052-280500-
EAST CENTRAL WISCONSIN

CITY           SKY/WX    TMP DP  RH WIND       PRES   REMARKS
STURGEON BAY   MOCLDY    16  10  79 CALM      30.25S
MANITOWOC      MOCLDY    25  18  74 S3        30.25S
SHEBOYGAN      CLOUDY    25  17  72 CALM      30.25R
$$

LMZ563-521-522-541>543-280500-
LAKESHORE

STATION/POSITION TIME  TEMP    WIND        PRES    VSBY  WAVE
                       AIR SEA DIR/SP/G                  HT/PER
                 (UTC) (F)     (DEG/KT/KT) (MB)    (MI)  (FT/S)
SHEBOYGAN LKSHOR 0400   27      20/  3/  4 1025.6R
KEWAUNEE LKSHORE 0400   24      CALM  /  1 1023.1F
NORTHPORT PIER   0400   17     190/  1/  3 1023.7F
SISTER BAY LKSHO 0300   17        CALM       N/A
CHAMBERS ISLAND  0400   16      CALM  /  2 1024.0R
MENOMINEE LKSHOR 0400   18     130/  3     1024.3F
$$


USA.gov is the U.S. government's official web portal to all federal, state and local government web resources and services.